This is the latest recevied weather packets stored in our database for station/object KB1WCR. If no packets are shown the sender has not sent any weather packets the latest 10 day(s).
| Time | Temp. | Humidity | Pressure | Rain* | Wind** | Luminosity | Snow |
|---|---|---|---|---|---|---|---|
| 1777642922 | 10.56° C | 66% | 1008.3 hPa | 0 mm | - | 579 W/m² | - |
| 1777642619 | 10.56° C | 68% | 1008.3 hPa | 0 mm | - | 675 W/m² | - |
| 1777642316 | 10.56° C | 69% | 1008.1 hPa | 0 mm | - | 576 W/m² | - |
| 1777642013 | 10.56° C | 73% | 1008.2 hPa | 0 mm | - | 568 W/m² | - |
| 1777641708 | 9.44° C | 76% | 1008.3 hPa | 0 mm | - | 614 W/m² | - |
| 1777641403 | 9.44° C | 76% | 1008.2 hPa | 0 mm | - | 297 W/m² | - |
| 1777641099 | 8.89° C | 78% | 1008.3 hPa | 0 mm | - | 298 W/m² | - |
| 1777640795 | 9.44° C | 78% | 1008.3 hPa | 0 mm | - | 301 W/m² | - |
| 1777640493 | 8.89° C | 79% | 1007.7 hPa | 0 mm | - | 276 W/m² | - |
| 1777640189 | 9.44° C | 80% | 1008.1 hPa | 0 mm | - | 284 W/m² | - |
| 1777639886 | 9.44° C | 82% | 1008.1 hPa | 0 mm | - | 464 W/m² | - |
| 1777639583 | 8.89° C | 82% | 1008 hPa | 0 mm | - | 437 W/m² | - |
| 1777639280 | 8.89° C | 82% | 1008 hPa | 0 mm | - | 422 W/m² | - |
| 1777638976 | 8.89° C | 81% | 1008 hPa | 0 mm | - | 407 W/m² | - |
| 1777638672 | 8.33° C | 84% | 1007.9 hPa | 0 mm | - | 394 W/m² | - |
| 1777638369 | 8.89° C | 85% | 1007.8 hPa | 0 mm | - | 381 W/m² | - |
| 1777638064 | 8.33° C | 85% | 1007.9 hPa | 0 mm | - | 367 W/m² | - |
| 1777637761 | 8.33° C | 84% | 1008.1 hPa | 0 mm | - | 353 W/m² | - |
| 1777637457 | 8.33° C | 88% | 1007.9 hPa | 0 mm | - | 341 W/m² | - |
| 1777637150 | 7.78° C | 90% | 1007.8 hPa | 0 mm | - | 325 W/m² | - |
| 1777636846 | 8.33° C | 90% | 1007.9 hPa | 0 mm | - | 311 W/m² | - |
| 1777636541 | 8.33° C | 91% | 1007.7 hPa | 0 mm | - | 294 W/m² | - |
| 1777636238 | 8.33° C | 94% | 1007.8 hPa | 0 mm | - | 277 W/m² | - |
| 1777635938 | 7.78° C | 95% | 1007.9 hPa | 0 mm | - | 263 W/m² | - |
| 1777635634 | 7.78° C | 94% | 1007.8 hPa | 0 mm | - | 247 W/m² | - |
* Rain latest hour (hover to see other rain measurements)
** Current wind speed in m/s (hover to see current wind gust speed)